Location: Unspecified
(0.0000°N, 0.0000°E)
Time: 03:14:25
(UTC+00:00)

Envisat - Pass Details

Date: 12 November 2019
Orbit: 764 x 766 km, 98.1° (Epoch: 11 November)

Event Time Altitude Azimuth Distance (km) Brightness Sun altitude
Rises 18:02:55 0° 156° (SSE) 3,230 6.2 -4.5°
Reaches altitude 10° 18:05:19 10° 150° (SSE) 2,301 5.4 -5.0°
Maximum altitude 18:10:08 44° 78° (ENE) 1,047 3.3 -6.2°
Drops below altitude 10° 18:14:55 10° 7° (N) 2,291 5.2 -7.3°
Sets 18:17:18 0° 0° (N) 3,214 6.0 -7.9°
